TimePST,TemperatureF,Dew PointF,Humidity,Sea Level PressureIn,VisibilityMPH,Wind Direction,Wind SpeedMPH,Gust SpeedMPH,PrecipitationIn,Events,Conditions,WindDirDegrees,DateUTC
12:51 AM,48.9,24.1,38,30.14,10.0,Calm,Calm,-,N/A,,Clear,0,2013-01-02 08:51:00
1:51 AM,44.1,28.9,55,30.12,10.0,NE,4.6,-,N/A,,Clear,40,2013-01-02 09:51:00
2:51 AM,45.0,28.0,52,30.11,10.0,NNE,4.6,-,N/A,,Clear,30,2013-01-02 10:51:00
3:51 AM,43.0,28.9,58,30.09,10.0,NE,3.5,-,N/A,,Clear,40,2013-01-02 11:51:00
4:51 AM,42.1,28.9,60,30.09,10.0,NNE,3.5,-,N/A,,Clear,20,2013-01-02 12:51:00
5:51 AM,45.0,26.1,48,30.08,10.0,NNW,4.6,-,N/A,,Clear,330,2013-01-02 13:51:00
6:51 AM,42.1,28.0,58,30.09,10.0,ENE,3.5,-,N/A,,Clear,70,2013-01-02 14:51:00
7:51 AM,46.0,28.9,51,30.09,10.0,North,3.5,-,N/A,,Clear,360,2013-01-02 15:51:00
8:51 AM,54.0,28.9,38,30.10,10.0,Calm,Calm,-,N/A,,Clear,0,2013-01-02 16:51:00
9:51 AM,57.0,25.0,29,30.11,10.0,SSW,3.5,-,N/A,,Clear,200,2013-01-02 17:51:00
10:51 AM,60.1,21.0,22,30.11,10.0,SSW,8.1,-,N/A,,Clear,210,2013-01-02 18:51:00
11:51 AM,60.1,28.0,30,30.09,10.0,SW,9.2,-,N/A,,Clear,220,2013-01-02 19:51:00
12:51 PM,62.1,27.0,26,30.06,10.0,West,8.1,-,N/A,,Clear,260,2013-01-02 20:51:00
1:51 PM,63.0,28.9,28,30.04,10.0,SW,10.4,-,N/A,,Clear,220,2013-01-02 21:51:00
2:51 PM,62.1,36.0,38,30.05,10.0,WSW,6.9,-,N/A,,Clear,240,2013-01-02 22:51:00
3:51 PM,60.1,39.9,47,30.05,10.0,SW,5.8,-,N/A,,Clear,230,2013-01-02 23:51:00
4:51 PM,57.9,42.1,56,30.05,10.0,SSW,3.5,-,N/A,,Clear,210,2013-01-03 00:51:00
5:51 PM,54.0,41.0,62,30.05,10.0,Calm,Calm,-,N/A,,Clear,0,2013-01-03 01:51:00
6:51 PM,52.0,42.1,69,30.06,10.0,ENE,3.5,-,N/A,,Clear,60,2013-01-03 02:51:00
7:51 PM,51.1,34.0,52,30.05,10.0,Calm,Calm,-,N/A,,Clear,0,2013-01-03 03:51:00
8:51 PM,52.0,32.0,47,30.06,10.0,Calm,Calm,-,N/A,,Clear,0,2013-01-03 04:51:00
9:51 PM,50.0,28.9,44,30.06,10.0,Calm,Calm,-,N/A,,Clear,0,2013-01-03 05:51:00
10:51 PM,48.9,30.0,48,30.06,10.0,NE,3.5,-,N/A,,Clear,50,2013-01-03 06:51:00
11:51 PM,46.0,33.1,61,30.06,10.0,ENE,3.5,-,N/A,,Clear,60,2013-01-03 07:51:00